Probability
10 6 6 23 6 0 0 0 0 0 0 0 3 0 3 3 0 0 0 10 16 32 55 81 94 94 94 97 94 87 90 87 87 84 68 68 61 58 65 71 68 71 71 65 65 61 55 58 55
3 3 6 19 6 0 0 0 0 0 0 0 0 0 0 10 6 6 6 13 16 32 42 65 90 87 87 84 90 94 81 81 81 74 58 61 61 68 68 65 65 65 55 61 65 55 55 48 48
0 10 19 3 6 0 0 0 0 0 6 6 6 6 10 13 10 6 10 6 13 23 39 71 90 87 84 81 84 84 81 77 81 74 61 55 61 68 65 61 58 61 61 55 48 52 52 45 39
6 13 6 6 3 0 0 0 0 0 3 6 10 3 10 6 6 6 13 6 13 29 42 77 90 84 84 81 81 77 77 74 71 68 61 61 65 61 55 55 52 58 52 48 42 39 32 29 35
16 13 6 3 3 0 0 0 0 3 3 3 6 6 10 3 6 13 10 3 16 29 45 77 87 90 84 81 84 81 77 71 61 65 61 71 71 71 61 58 61 55 55 55 39 29 29 29 29
19 6 3 0 0 0 0 0 0 3 3 6 6 6 10 6 13 13 13 10 19 29 42 68 84 81 87 87 84 74 74 71 74 71 68 71 68 68 68 65 65 58 55 48 45 35 32 39 39
13 6 3 3 0 0 0 0 0 0 3 6 13 6 6 13 6 13 16 13 23 26 35 52 68 71 87 90 90 71 81 81 81 77 74 68 68 65 65 65 61 48 48 48 48 35 45 42 52
10 6 3 0 0 0 0 0 0 0 3 6 6 6 3 6 13 13 10 10 16 26 32 35 39 45 55 61 84 81 81 81 81 81 71 71 71 65 68 65 58 55 52 48 48 48 61 65 68
6 6 3 0 0 0 3 3 0 3 3 6 6 6 3 3 10 10 13 13 13 16 26 32 39 32 29 35 68 74 74 77 77 71 77 55 32 35 42 48 61 61 61 58 61 65 68 84 68
3 3 3 3 0 3 3 3 3 3 10 6 13 10 10 6 10 13 13 13 13 13 16 19 16 13 16 23 35 39 39 42 29 23 23 23 13 10 26 45 61 74 68 71 68 74 81 65 26
0 3 0 0 0 0 0 3 3 6 6 6 6 16 10 6 6 10 13 13 16 13 16 13 10 10 10 13 23 26 23 23 16 19 16 19 3 0 10 3 26 32 45 26 39 48 42 23 16
0 0 0 0 0 0 3 6 6 3 6 6 6 10 10 6 10 6 13 16 16 13 10 3 3 10 10 13 13 16 19 23 13 13 13 10 3 3 6 3 6 0 6 13 10 13 10 6 10
0 0 0 0 0 0 3 6 6 3 10 6 6 10 6 6 10 10 6 10 10 10 10 6 3 3 10 13 13 13 13 10 6 6 13 10 6 6 6 3 10 10 3 6 10 6 13 13 13
3 0 0 0 0 0 3 6 10 6 10 6 6 10 10 10 6 3 10 6 6 6 3 0 3 6 10 10 6 6 0 3 6 3 10 10 6 0 6 10 6 6 6 13 13 16 6 10 10
0 0 0 0 0 0 3 3 10 13 6 6 6 10 6 6 10 6 13 13 13 6 6 0 0 3 13 13 6 3 3 3 3 6 10 13 3 0 3 6 6 13 10 6 10 3 6 6 6
0 0 0 0 0 0 0 6 10 16 13 6 6 10 10 6 6 10 6 10 10 13 3 0 23 10 6 13 10 10 6 10 10 13 6 13 10 3 10 10 10 16 13 6 6 3 3 3 3
0 0 0 0 0 0 0 3 10 13 10 10 3 6 10 10 6 6 10 10 10 10 6 0 10 10 16 13 13 19 16 16 13 10 6 6 10 13 10 10 6 10 6 6 13 10 6 6 6
0 0 0 0 0 0 0 3 6 13 10 10 6 6 10 10 10 10 16 16 13 13 13 6 16 10 16 16 16 19 16 19 13 13 16 13 16 13 10 6 13 13 16 16 6 6 3 3 10
0 0 0 0 0 0 0 3 6 10 6 6 6 6 10 6 10 16 19 26 23 26 26 13 26 19 19 29 26 26 26 19 16 23 29 23 19 19 16 23 19 19 16 13 13 10 6 6 6
0 0 0 0 0 0 0 0 3 13 10 3 6 6 6 3 10 19 23 35 32 35 29 26 26 29 29 32 29 29 23 26 26 29 26 29 26 29 35 13 26 19 19 19 16 13 10 10 10
0 0 0 0 0 0 0 3 3 10 6 6 3 6 6 6 10 23 23 32 29 32 39 35 35 39 42 39 35 35 29 29 29 35 32 29 29 35 39 19 19 26 26 26 19 13 13 13 10
0 0 0 0 0 0 0 0 3 3 6 6 6 6 6 13 13 19 26 32 32 32 42 42 39 35 42 45 39 35 32 35 29 29 35 35 29 39 35 23 23 23 19 16 16 26 16 16 16
0 0 0 0 0 0 0 0 0 0 6 10 10 10 6 10 19 19 26 29 32 35 48 45 48 48 48 45 45 42 35 39 39 35 35 29 32 32 26 29 26 23 23 19 23 23 19 19 23
0 0 0 0 0 0 0 0 0 0 10 10 10 10 10 13 16 19 26 23 26 35 42 48 48 45 48 45 45 42 45 45 45 39 35 32 35 35 29 23 23 26 23 19 19 19 23 26 16
0 0 0 0 0 0 0 3 3 6 10 13 13 10 10 10 16 19 16 19 26 32 42 45 48 52 42 45 39 32 42 35 42 39 35 35 29 35 32 29 19 23 26 32 26 29 32 35 32
0 0 0 0 0 0 0 3 3 6 6 10 13 10 16 16 13 16 16 23 26 32 35 42 39 45 42 45 35 29 35 32 32 35 35 29 19 23 26 26 32 32 35 39 26 32 32 35 32
0 0 0 0 0 0 0 3 6 10 13 16 19 26 23 23 16 19 23 19 26 32 29 42 39 42 35 32 35 29 32 39 42 35 35 26 19 23 26 23 26 29 29 39 35 29 26 26 29
0 0 0 0 0 0 0 6 6 13 10 16 16 19 19 19 19 19 23 19 29 29 32 32 35 39 32 26 39 29 35 32 26 29 26 26 32 29 29 32 29 26 26 32 26 29 26 23 23
0 0 0 0 0 0 0 0 3 6 13 13 16 16 16 23 23 16 19 16 23 26 26 23 26 29 32 35 35 39 35 32 32 32 29 29 29 29 29 26 29 26 26 23 26 26 23 26 32
0 0 0 0 0 0 0 0 6 10 10 13 16 13 16 16 16 13 16 16 19 19 19 23 29 35 39 39 32 26 23 23 32 32 29 23 23 32 26 26 29 32 26 19 23 23 23 19 26
Height
5912 5912 5912 5912 5912 5911 5909 5908 5907 5907 5907 5906 5906 5906 5905 5905 5906 5907 5905 5903 5903 5903 5903 5903 5902 5903 5903 5903 5903 5904 5904 5904 5903 5903 5903 5903 5902 5902 5903 5903 5903 5903 5903 5903 5903 5903 5903 5903 5903
5914 5913 5914 5914 5912 5911 5911 5910 5909 5909 5909 5908 5908 5907 5907 5906 5906 5905 5905 5904 5904 5904 5904 5904 5904 5904 5904 5904 5904 5905 5905 5905 5904 5904 5904 5904 5904 5904 5904 5904 5904 5903 5903 5904 5903 5904 5903 5903 5903
5916 5915 5915 5914 5913 5913 5912 5911 5910 5910 5909 5909 5909 5909 5908 5907 5907 5906 5906 5905 5905 5905 5905 5905 5905 5905 5905 5905 5905 5905 5906 5905 5905 5905 5905 5905 5904 5904 5904 5904 5904 5904 5904 5904 5904 5904 5904 5904 5904
5917 5918 5917 5916 5914 5914 5913 5913 5912 5911 5911 5910 5910 5910 5909 5909 5908 5907 5907 5906 5906 5906 5906 5906 5906 5906 5906 5906 5906 5906 5906 5906 5906 5906 5906 5905 5905 5905 5905 5905 5905 5905 5905 5905 5905 5905 5905 5904 5904
5919 5918 5917 5916 5916 5915 5915 5914 5914 5914 5912 5912 5912 5911 5910 5910 5909 5908 5907 5907 5907 5907 5907 5907 5907 5907 5907 5907 5907 5907 5907 5907 5907 5906 5906 5906 5906 5906 5905 5905 5906 5905 5905 5905 5905 5905 5905 5905 5904
5920 5919 5919 5918 5918 5917 5916 5915 5915 5915 5914 5914 5913 5912 5911 5910 5910 5909 5908 5908 5908 5908 5908 5908 5907 5908 5908 5908 5908 5907 5907 5907 5907 5907 5907 5906 5906 5906 5906 5906 5906 5906 5906 5906 5905 5905 5905 5905 5905
5922 5921 5920 5920 5920 5919 5918 5917 5916 5916 5915 5915 5914 5913 5912 5911 5910 5909 5909 5909 5908 5908 5908 5908 5908 5908 5908 5908 5908 5908 5908 5908 5908 5907 5907 5907 5907 5906 5906 5906 5906 5906 5906 5906 5906 5906 5905 5905 5905
5923 5923 5922 5922 5921 5921 5919 5919 5918 5917 5917 5916 5915 5913 5913 5912 5911 5910 5910 5909 5909 5909 5909 5909 5909 5909 5909 5909 5908 5908 5908 5908 5908 5908 5907 5907 5907 5907 5907 5907 5906 5906 5906 5906 5906 5906 5905 5905 5905
5924 5925 5924 5924 5923 5922 5921 5921 5920 5918 5917 5916 5915 5914 5914 5912 5912 5911 5911 5910 5910 5909 5909 5909 5909 5910 5910 5909 5909 5909 5909 5908 5908 5908 5907 5907 5907 5907 5907 5907 5907 5907 5907 5906 5906 5906 5905 5905 5905
5925 5925 5925 5925 5925 5923 5922 5922 5921 5919 5918 5917 5916 5915 5914 5913 5912 5911 5911 5910 5910 5910 5910 5910 5910 5910 5910 5910 5910 5909 5909 5909 5908 5908 5908 5908 5908 5908 5908 5907 5907 5907 5907 5906 5906 5906 5905 5905 5905
5927 5927 5926 5926 5925 5925 5924 5923 5922 5921 5920 5919 5917 5916 5915 5914 5913 5912 5911 5911 5911 5910 5910 5910 5911 5911 5910 5910 5910 5910 5910 5909 5909 5908 5908 5908 5908 5908 5908 5908 5908 5907 5907 5907 5906 5906 5905 5905 5905
5929 5929 5928 5927 5926 5925 5925 5924 5923 5923 5922 5920 5919 5917 5916 5915 5914 5913 5913 5912 5912 5912 5911 5911 5911 5911 5911 5911 5911 5910 5910 5910 5909 5909 5908 5908 5908 5909 5908 5908 5908 5908 5907 5907 5906 5906 5906 5905 5905
5930 5930 5929 5928 5928 5927 5927 5926 5925 5924 5923 5921 5920 5918 5917 5916 5915 5914 5914 5913 5913 5913 5913 5912 5912 5912 5912 5911 5911 5911 5911 5910 5909 5909 5909 5909 5909 5909 5908 5908 5908 5908 5907 5907 5907 5906 5906 5906 5905
5931 5931 5930 5930 5930 5929 5929 5928 5927 5926 5924 5923 5921 5920 5918 5917 5916 5915 5914 5914 5913 5913 5913 5913 5913 5913 5912 5912 5912 5911 5911 5910 5910 5909 5909 5909 5909 5909 5908 5908 5908 5908 5907 5907 5907 5906 5906 5906 5905
5932 5932 5932 5931 5931 5930 5930 5930 5928 5927 5926 5924 5923 5921 5920 5919 5918 5916 5915 5914 5914 5914 5914 5914 5913 5913 5913 5913 5912 5912 5911 5910 5910 5910 5909 5909 5909 5909 5908 5908 5908 5908 5907 5907 5906 5906 5906 5906 5905
5933 5933 5933 5932 5931 5931 5932 5931 5929 5928 5927 5925 5924 5922 5921 5919 5919 5917 5916 5916 5915 5915 5915 5914 5914 5914 5914 5913 5913 5912 5911 5911 5910 5910 5910 5909 5909 5909 5908 5908 5908 5908 5907 5906 5906 5906 5905 5905 5905
5933 5933 5932 5932 5932 5931 5931 5930 5930 5929 5928 5926 5925 5923 5922 5921 5920 5919 5917 5917 5917 5916 5916 5915 5915 5915 5914 5914 5913 5913 5912 5912 5911 5910 5910 5910 5909 5909 5908 5908 5907 5907 5907 5906 5905 5905 5904 5904 5903
5933 5932 5932 5932 5932 5931 5930 5930 5929 5929 5928 5926 5925 5924 5922 5921 5921 5920 5919 5918 5918 5917 5916 5916 5916 5915 5915 5914 5913 5913 5912 5912 5911 5911 5910 5910 5909 5908 5908 5907 5907 5907 5906 5905 5905 5904 5904 5903 5902
5932 5932 5932 5932 5931 5930 5929 5929 5929 5928 5928 5927 5925 5925 5923 5922 5921 5920 5920 5919 5918 5918 5917 5916 5916 5915 5915 5914 5913 5913 5912 5911 5911 5910 5910 5909 5908 5908 5907 5907 5906 5906 5905 5905 5904 5903 5903 5902 5901
5931 5931 5931 5931 5929 5929 5928 5928 5927 5927 5927 5926 5925 5924 5924 5922 5921 5920 5920 5920 5919 5918 5917 5916 5915 5915 5914 5914 5913 5913 5912 5911 5911 5910 5909 5909 5908 5907 5906 5905 5905 5905 5904 5903 5903 5902 5901 5900 5900
5929 5929 5929 5929 5928 5927 5927 5927 5926 5926 5925 5924 5924 5923 5923 5922 5921 5920 5920 5920 5919 5917 5916 5915 5915 5914 5914 5913 5913 5912 5911 5911 5910 5909 5908 5908 5907 5906 5905 5904 5904 5903 5902 5901 5900 5899 5899 5898 5898
5928 5928 5928 5927 5927 5927 5927 5925 5925 5924 5924 5923 5923 5922 5921 5921 5920 5920 5919 5919 5918 5917 5916 5915 5914 5913 5913 5912 5911 5911 5910 5909 5909 5908 5907 5906 5905 5904 5903 5901 5901 5900 5900 5899 5898 5897 5896 5895 5895
5927 5927 5926 5926 5925 5926 5925 5925 5925 5922 5922 5922 5921 5921 5921 5920 5920 5919 5918 5918 5917 5916 5915 5914 5913 5912 5912 5911 5910 5910 5909 5908 5907 5906 5905 5904 5903 5902 5901 5900 5899 5898 5897 5896 5895 5895 5893 5893 5892
5925 5925 5925 5924 5924 5924 5924 5923 5923 5921 5920 5920 5920 5920 5919 5919 5918 5918 5917 5916 5916 5915 5913 5913 5912 5911 5910 5909 5909 5908 5907 5906 5905 5904 5903 5902 5901 5900 5899 5898 5897 5895 5894 5893 5892 5891 5891 5889 5888
5922 5923 5923 5922 5922 5922 5922 5920 5921 5919 5919 5918 5918 5917 5917 5916 5916 5915 5915 5913 5913 5913 5912 5911 5910 5909 5908 5907 5907 5906 5905 5904 5903 5902 5901 5900 5898 5897 5896 5895 5893 5892 5891 5890 5889 5888 5887 5886 5884
5919 5920 5921 5920 5920 5920 5919 5918 5918 5917 5916 5916 5915 5914 5913 5913 5912 5912 5912 5911 5910 5910 5910 5909 5908 5907 5906 5905 5904 5903 5902 5901 5900 5899 5898 5896 5895 5894 5893 5891 5890 5889 5888 5886 5885 5884 5883 5882 5880
5916 5917 5917 5918 5917 5917 5916 5916 5915 5914 5913 5913 5912 5912 5911 5910 5910 5909 5909 5908 5908 5907 5906 5906 5905 5904 5903 5902 5901 5900 5899 5898 5897 5895 5894 5893 5891 5890 5889 5888 5886 5885 5884 5882 5881 5880 5878 5877 5876
5913 5914 5914 5914 5914 5913 5913 5912 5912 5912 5910 5910 5909 5909 5909 5908 5907 5906 5905 5905 5904 5903 5903 5902 5901 5901 5900 5898 5897 5896 5895 5894 5893 5891 5890 5889 5888 5886 5885 5883 5882 5881 5879 5878 5876 5874 5873 5871 5870
5909 5909 5910 5910 5910 5910 5909 5911 5909 5908 5907 5906 5906 5906 5906 5905 5904 5903 5901 5901 5900 5900 5899 5898 5898 5897 5896 5895 5894 5893 5891 5890 5888 5887 5885 5884 5883 5882 5880 5879 5877 5876 5874 5872 5870 5869 5867 5866 5864
5904 5905 5905 5906 5906 5906 5905 5908 5905 5904 5903 5903 5903 5902 5902 5901 5900 5898 5896 5895 5895 5895 5894 5894 5894 5893 5892 5891 5890 5888 5887 5885 5884 5882 5880 5878 5877 5876 5875 5873 5872 5870 5868 5866 5865 5863 5861 5860 5858
Wind_Speed
12 11 11 11 12 11 11 11 12 10 9 9 9 8 8 8 7 6 6 7 8 8 8 8 8 8 7 7 6 6 6 6 5 5 5 5 5 5 5 5 5 5 4 4 4 4 4 4 3
11 10 10 10 12 12 12 12 12 11 10 9 8 8 8 8 7 7 7 7 8 8 8 7 7 7 7 6 6 5 5 5 5 5 4 5 5 5 4 5 5 4 4 4 4 3 4 3 3
11 11 11 11 12 13 13 13 12 12 11 11 9 8 8 8 8 7 7 7 8 7 7 6 6 6 6 5 5 5 4 5 5 4 4 5 5 4 4 4 4 4 3 4 4 3 3 3 3
11 10 11 12 13 13 13 13 12 11 11 11 10 9 8 8 8 8 7 8 8 8 7 6 6 5 5 5 5 4 4 4 4 3 3 4 4 3 3 3 3 3 3 3 3 3 3 3 3
9 11 13 13 13 14 13 13 12 12 11 11 10 9 7 8 8 7 7 8 8 8 7 7 6 6 6 5 5 4 4 4 4 4 3 3 3 3 3 3 3 3 3 3 3 3 3 2 2
11 12 12 12 13 14 13 13 12 11 11 11 10 9 9 8 8 8 8 7 7 7 7 7 6 6 6 5 5 4 4 3 3 3 3 3 3 3 3 3 3 3 3 3 3 2 3 3 3
10 12 13 12 13 14 14 13 12 11 11 11 10 10 10 10 9 9 8 8 7 6 6 6 6 6 6 6 5 4 4 3 3 2 2 3 3 3 3 4 3 3 4 3 2 2 2 2 2
10 12 12 12 12 14 14 13 11 11 11 11 11 11 10 10 9 9 8 8 7 7 6 5 5 5 5 5 4 4 3 3 2 2 3 3 4 3 3 4 4 3 3 3 2 2 2 2 2
10 11 10 11 11 12 14 13 12 12 12 11 12 11 10 10 9 8 8 7 7 7 6 6 5 5 5 5 4 4 4 3 3 3 3 3 3 3 3 3 3 3 3 2 2 2 1 1 2
12 12 10 11 12 12 13 13 13 14 12 12 12 11 11 10 9 8 7 7 7 7 7 6 5 5 5 5 5 5 4 4 4 3 3 3 3 3 2 3 2 3 3 2 1 1 2 2 1
11 11 12 13 13 13 14 13 14 15 14 13 11 11 11 11 10 9 8 7 7 7 7 7 6 6 6 5 6 5 5 5 4 4 3 3 3 3 2 2 2 2 2 1 1 2 2 2 1
9 9 11 12 12 13 14 14 14 15 14 13 12 11 12 11 10 9 9 8 8 8 7 7 7 6 6 6 6 6 5 5 4 4 3 3 3 2 1 1 1 1 1 1 1 2 2 2 2
10 9 9 10 12 13 14 14 14 15 14 13 12 12 13 12 11 9 9 9 9 8 7 7 7 7 6 6 6 6 5 5 4 4 3 3 3 2 0 0 1 1 0 1 1 2 2 2 2
9 9 9 9 11 13 13 13 13 14 14 13 13 13 13 12 11 10 9 9 9 8 8 7 7 7 6 6 6 5 5 4 4 4 3 3 2 2 2 1 0 1 1 1 1 1 1 1 2
7 7 7 8 8 10 12 12 12 13 14 13 12 13 12 12 11 11 10 10 9 9 8 8 7 7 7 7 7 6 5 5 4 3 3 3 2 2 2 2 1 1 1 1 1 1 1 2 2
4 5 6 6 7 8 10 11 11 12 12 12 11 11 11 10 11 11 10 9 10 9 9 8 7 7 6 6 6 6 6 5 4 3 3 3 2 2 2 2 1 1 1 1 1 1 2 3 3
3 4 4 5 6 7 9 10 11 11 11 11 10 10 9 9 10 10 9 9 9 9 8 8 7 7 6 6 6 6 5 5 4 4 3 3 2 1 1 1 1 1 1 1 1 2 3 3 4
2 3 3 4 4 5 6 8 9 11 11 10 9 9 9 9 8 9 8 7 8 8 7 7 6 6 6 5 5 5 4 4 4 3 3 3 2 2 1 1 1 1 2 2 2 2 3 4 4
0 0 1 2 2 3 5 6 8 11 11 10 8 8 7 7 8 7 7 6 6 6 6 5 5 5 5 4 4 4 4 4 4 3 3 3 3 2 2 2 3 3 4 4 4 4 4 5 5
4 4 4 4 4 4 6 7 8 9 10 10 8 7 7 6 7 6 6 5 5 5 5 4 4 3 4 4 4 4 4 4 4 3 3 3 4 3 4 4 4 5 5 5 5 5 6 5 5
5 6 6 6 5 5 6 6 8 11 10 8 8 6 6 6 6 6 5 5 5 5 5 4 4 3 3 3 3 4 4 4 4 4 3 4 4 5 5 5 6 6 6 6 7 6 6 7 7
5 6 8 7 5 5 7 8 8 10 9 6 7 7 6 5 6 5 5 4 4 5 6 5 4 3 3 3 4 5 5 6 5 5 5 5 5 6 7 7 8 7 8 8 8 8 9 9 10
6 6 7 6 6 6 6 8 9 8 8 8 8 8 7 6 6 5 5 5 4 5 6 6 5 4 4 4 4 5 6 6 6 6 6 7 7 8 8 8 9 9 9 10 10 10 10 10 11
7 7 7 6 6 6 7 9 10 9 9 8 8 9 8 8 8 7 6 5 5 6 6 7 7 6 6 6 6 7 7 7 8 8 8 9 9 9 9 9 10 10 11 11 12 12 12 12 13
9 8 8 8 6 5 6 9 11 10 10 8 9 10 10 10 9 8 7 6 5 6 7 8 8 8 8 8 8 8 8 8 8 9 9 9 10 11 11 11 11 11 12 12 13 13 13 14 14
10 10 11 10 8 7 8 10 11 11 10 10 10 11 12 12 10 9 9 8 7 7 8 9 10 10 9 10 10 10 9 9 9 11 11 11 12 12 13 13 12 12 13 14 14 15 15 16 16
12 12 12 13 12 11 12 12 11 11 11 11 12 13 12 11 11 11 10 10 9 8 9 10 11 10 10 11 11 11 11 11 11 12 12 12 12 13 14 14 15 15 15 16 17 17 17 18 18
15 14 13 14 15 15 15 15 14 14 14 14 15 15 13 13 13 14 13 13 13 12 11 11 11 11 11 11 12 12 12 12 12 12 13 14 15 16 16 15 16 17 17 18 18 18 18 19 19
17 17 16 17 17 18 17 17 16 16 16 17 17 16 15 15 14 15 15 17 16 15 14 14 13 13 13 13 13 14 14 15 15 15 15 16 17 17 17 17 18 18 19 19 19 19 19 20 21
19 19 19 19 19 19 19 18 17 18 18 18 18 17 17 18 17 16 16 16 16 16 15 15 16 15 15 15 15 16 16 17 17 17 18 18 18 18 19 19 20 21 21 22 21 21 22 22 23
Wind_Direction
82 75 67 64 61 56 53 56 58 55 53 52 51 55 51 54 54 67 70 80 84 85 83 84 90 92 93 92 91 90 90 90 94 99 103 102 107 113 105 105 109 112 115 116 110 101 107 107 100
78 73 69 62 57 56 55 55 54 59 56 55 51 54 55 54 54 66 67 78 81 81 80 82 85 93 95 92 88 89 90 88 89 93 104 108 108 111 107 107 109 111 115 117 114 105 103 100 98
74 64 58 56 55 53 53 53 53 51 54 54 53 54 56 55 55 58 63 72 76 78 80 84 80 90 94 92 87 88 89 86 90 95 109 113 111 114 115 110 110 114 114 111 111 105 97 94 94
73 67 58 55 53 51 53 53 51 46 48 51 52 51 50 54 56 56 60 67 73 74 76 78 78 86 91 95 92 89 84 86 90 97 108 118 117 112 111 111 110 113 112 108 109 102 90 85 82
77 65 56 55 50 49 50 50 47 48 49 49 49 45 48 53 55 57 59 65 67 64 65 68 71 73 77 79 83 87 82 85 86 87 90 102 112 111 107 108 115 115 112 109 105 102 84 78 70
77 66 55 55 52 50 49 50 45 45 40 45 50 50 49 50 56 59 58 61 62 61 59 66 74 73 70 70 79 81 79 79 85 86 88 93 95 109 114 115 117 119 116 111 106 101 75 68 62
73 61 48 49 49 49 48 46 44 39 39 41 48 52 48 52 54 55 58 62 62 62 61 67 79 79 71 70 73 72 76 77 86 92 95 108 102 109 118 117 117 119 117 108 101 91 75 54 52
69 55 44 44 46 49 50 46 43 42 42 42 46 50 48 48 48 49 54 56 59 62 64 70 83 85 78 74 71 72 82 83 89 94 108 114 111 112 123 122 120 123 121 109 96 84 78 62 53
65 56 49 47 45 46 46 42 40 42 44 43 42 42 43 44 48 51 52 53 55 59 64 72 89 88 77 72 71 72 71 75 81 79 106 111 110 109 127 126 119 125 119 108 97 78 54 49 47
65 55 56 54 48 44 42 39 38 40 40 41 41 41 44 49 48 49 52 58 63 67 72 77 88 89 82 70 71 73 65 75 76 80 96 100 101 100 117 134 128 122 119 109 81 52 34 35 31
63 56 57 53 45 42 42 39 38 39 38 37 42 46 48 50 49 52 60 69 73 71 71 75 82 90 85 74 70 73 72 71 71 71 83 88 94 96 99 136 133 120 106 80 53 47 33 29 7
65 58 53 47 45 44 44 38 32 37 37 36 43 50 53 50 52 58 66 74 77 75 73 70 73 81 79 76 72 76 73 66 62 62 70 84 89 96 103 174 175 122 82 65 55 43 29 22 360
78 69 57 43 40 43 41 38 32 37 37 36 40 47 52 52 50 58 67 73 74 75 76 72 72 74 76 73 69 67 68 65 60 63 74 90 95 93 118 187 123 120 83 25 18 20 22 21 11
90 70 53 50 42 38 38 40 36 33 35 36 40 43 43 47 50 59 61 68 72 73 74 74 74 71 70 66 63 59 63 63 67 66 79 85 86 76 74 71 157 145 77 24 351 351 356 0 356
95 81 64 54 45 36 33 33 30 27 26 31 36 40 41 43 45 54 62 67 68 67 66 69 72 72 70 70 66 59 59 61 65 70 77 82 79 63 60 63 70 56 17 13 343 292 284 314 312
96 80 72 58 44 31 24 22 20 23 24 26 30 34 37 41 43 47 57 60 63 62 62 64 64 66 68 69 67 60 63 59 60 68 75 73 70 53 70 88 86 50 3 7 350 287 278 294 298
109 64 66 59 45 22 12 11 15 16 17 19 25 31 36 36 36 38 51 56 57 59 57 56 56 57 61 64 64 59 61 53 49 52 56 55 45 32 70 95 88 56 11 355 326 296 293 296 292
100 86 74 38 28 6 359 358 1 4 10 17 24 30 35 35 38 36 39 52 56 55 51 48 48 51 53 56 58 55 49 41 37 40 34 39 19 359 352 310 314 333 344 340 309 289 291 293 295
322 274 265 325 324 327 334 332 343 349 356 6 12 17 25 36 40 39 35 37 42 43 41 39 39 39 40 38 35 34 29 23 23 16 10 8 355 350 336 314 317 312 312 318 319 303 298 296 294
251 249 262 273 291 308 307 311 331 339 342 354 1 4 7 21 34 34 32 27 26 28 24 26 28 25 23 23 15 7 2 3 355 353 4 352 341 338 327 298 299 300 300 297 304 304 301 302 298
246 243 259 264 285 301 302 304 319 329 328 343 355 348 353 4 10 15 16 12 17 21 23 18 20 12 2 2 355 348 352 350 346 345 339 329 331 326 312 301 291 290 294 294 295 300 300 298 298
248 258 262 263 266 288 292 300 308 318 320 328 337 342 353 344 348 359 359 360 5 11 12 2 5 8 5 358 351 340 341 343 334 328 325 323 324 320 312 303 301 292 298 294 294 298 296 294 293
252 261 259 255 256 273 286 294 305 308 320 322 320 335 335 326 327 330 329 329 331 345 349 353 351 348 345 338 333 331 324 324 320 315 313 307 310 317 312 306 302 295 293 293 293 300 297 294 292
257 264 261 252 260 270 280 285 294 302 311 312 318 327 321 315 317 312 305 305 315 319 334 338 334 329 326 324 317 311 309 309 306 305 303 303 306 310 307 303 303 297 290 289 289 294 294 293 290
248 252 254 246 256 267 275 285 295 294 303 298 305 312 306 303 300 290 289 289 301 310 319 324 324 316 310 307 308 306 304 300 300 299 299 298 302 303 299 298 300 297 291 290 293 292 293 293 289
243 253 258 258 263 267 280 293 294 295 294 294 298 303 300 295 298 289 293 297 294 299 305 310 311 310 305 301 301 297 295 296 296 296 294 292 294 300 299 296 296 295 294 294 294 292 290 291 289
243 249 259 263 264 269 277 288 288 287 287 291 297 301 299 299 297 300 296 300 302 298 297 300 303 302 301 298 297 297 292 292 293 295 292 294 293 296 297 297 294 293 290 293 294 290 289 290 288
248 250 251 257 261 265 268 277 283 288 287 290 299 304 305 306 305 307 302 299 299 301 296 296 297 296 299 298 298 297 295 292 294 296 295 294 294 294 295 298 299 296 292 290 292 292 290 288 287
246 248 250 257 264 267 269 273 281 288 288 294 301 305 303 305 304 302 299 298 294 295 295 297 297 296 296 297 296 294 293 295 292 294 295 292 292 295 297 298 296 296 295 293 293 292 291 287 286
243 245 246 254 258 262 268 272 275 278 284 289 293 297 300 301 302 300 298 297 291 287 290 294 294 295 296 297 295 293 292 292 293 292 294 293 291 291 294 295 294 293 292 292 292 290 290 289 288